User: anonymous   Login
Location: UBC Liquid-Mirror Observatory
(49.2876°N, 122.5728°W)
Time: 02:15:12
(UTC-08:00)
Language:

Cosmos 1743 Rocket - Orbit

View from above orbital plane
View from above orbital plane
View from above satellite
View from above satellite

Ground track
Ground track

The orbit data is extracted from the following two-line orbital elements,

1 16720U 86034B   16338.76101061  .00000107  00000-0  10089-4 0  9990
2 16720  82.5557  63.6992 0020954  30.2165  88.0653 14.83264820650292
Epoch (UTC): 03 December 2016 18:15:51
Eccentricity: 0.0020954
inclination: 82.5557°
perigee height: 604 km
apogee height: 634 km
right ascension of ascending node: 63.6992°
argument of perigee: 30.2165°
revolutions per day: 14.83264820
mean anomaly at epoch: 88.0653°
orbit number at epoch: 65029

The dashed part of the orbit path shows where the satellite is in the earth's shadow,  

DLR